Ketchikan, AK

3:41 AM AKST on January 21, 2019 (GMT -0900)
Ketchikan International

Weather History for PAKT - November, 2018

Change the Weather History Date:

Tuesday, November 13, 2018

  Actual Average Record
Temperature  
Mean Temperature 48 °F -  
Max Temperature 53 °F 45 °F 61 °F (1981)
Min Temperature 44 °F 34 °F 14 °F (1955)
Degree Days  
Heating Degree Days 16    
Moisture  
Dew Point 42 °F    
Average Humidity 80    
Maximum Humidity 93    
Minimum Humidity 41    
Precipitation  
Precipitation 0.25 in - - ()
Sea Level Pressure  
Sea Level Pressure 29.75 in    
Wind  
Wind Speed 15 mph (SE)    
Max Wind Speed 34 mph    
Max Gust Speed 43 mph    
Visibility 9 miles    
Events Rain    
Averages and records for this station are not official NWS values.
T = Trace of Precipitation, MM = Missing Value Source: NWS Daily Summary

Daily Weather History Graph

Daily Weather History Graph

Search for Another Location

Airport or City:

Astronomy

Nov. 13, 2018 Rise Set
Actual Time 7:16 AM AKST 3:44 PM AKST
Civil Twilight 6:35 AM AKST 4:25 PM AKST
Nautical Twilight 5:51 AM AKST 5:10 PM AKST
Astronomical Twilight 5:08 AM AKST 5:53 PM AKST
Moon 12:43 PM AKST (11/13) 8:49 PM AKST (11/13)
Length of Visible Light 9h 50m
Length of Day
8h 27m
Waxing Crescent, 34% of the Moon is Illuminated
Nov 13
Waxing Crescent
Nov 15
First Quarter
Nov 22
Full
Nov 29
Last Quarter
Dec 6
New

Hourly Weather History & Observations

Time (AKST) Temp. Windchill Dew Point Humidity Pressure Visibility Wind Dir Wind Speed Gust Speed Precip Events Conditions
12:53 AM 51.1 °F - 32.0 °F 48% 29.89 in 10.0 mi SSE 11.5 mph - 0.00 in   Overcast
1:53 AM 50.0 °F - 33.1 °F 52% 29.83 in 10.0 mi SE 13.8 mph 23.0 mph N/A   Overcast
2:53 AM 53.1 °F - 30.0 °F 41% 29.77 in 10.0 mi SE 26.5 mph 38.0 mph 0.00 in   Overcast
3:53 AM 52.0 °F - 30.0 °F 43% 29.71 in 10.0 mi SE 34.5 mph 42.6 mph N/A   Overcast
4:53 AM 48.9 °F - 35.1 °F 59% 29.67 in 10.0 mi SE 21.9 mph 34.5 mph 0.00 in Rain Light Rain
5:53 AM 46.9 °F - 37.9 °F 71% 29.63 in 9.0 mi SE 19.6 mph 34.5 mph 0.03 in Rain Light Rain
6:12 AM 46.4 °F 37.7 °F 39.2 °F 76% 29.62 in 10.0 mi SE 26.5 mph 35.7 mph N/A Rain Light Rain
6:53 AM 44.6 °F 37.4 °F 41.0 °F 87% 29.62 in 8.0 mi SSE 16.1 mph 23.0 mph N/A Rain Light Rain
6:55 AM 46.4 °F 39.2 °F 41.0 °F 81% 29.61 in 7.0 mi SSE 18.4 mph 23.0 mph N/A Rain Light Rain
7:53 AM 46.4 °F 39.2 °F 42.8 °F 87% 29.59 in 10.0 mi SSE 18.4 mph 31.1 mph N/A Rain Light Rain
8:53 AM 48.2 °F - 44.6 °F 87% 29.60 in 10.0 mi SE 15.0 mph 26.5 mph N/A Rain Light Rain
9:53 AM 51.1 °F - 48.0 °F 89% 29.61 in 10.0 mi SE 19.6 mph 32.2 mph 0.00 in   Overcast
10:53 AM 51.1 °F - 46.0 °F 83% 29.67 in 5.0 mi SSE 16.1 mph 26.5 mph 0.09 in Rain Heavy Rain
11:53 AM 50.0 °F - 46.0 °F 86% 29.70 in 8.0 mi SSE 10.4 mph - 0.03 in Rain Light Rain
12:51 PM 50.0 °F - 44.6 °F 82% 29.72 in 10.0 mi SE 15.0 mph - N/A   Overcast
12:53 PM 50.0 °F - 44.6 °F 82% 29.72 in 10.0 mi SE 17.3 mph 23.0 mph N/A   Overcast
1:53 PM 48.2 °F - 42.8 °F 82% 29.73 in 9.0 mi ESE 8.1 mph - N/A Rain Light Rain
2:51 PM 48.2 °F - 44.6 °F 87% 29.76 in 6.0 mi SE 5.8 mph - N/A Rain Light Rain
2:53 PM 48.2 °F - 44.6 °F 87% 29.77 in 7.0 mi SE 6.9 mph - N/A Rain Light Rain
3:53 PM 48.2 °F - 42.8 °F 82% 29.79 in 10.0 mi SE 13.8 mph 24.2 mph N/A   Overcast
4:51 PM 48.2 °F - 42.8 °F 82% 29.80 in 10.0 mi SE 10.4 mph - N/A   Overcast
4:53 PM 48.9 °F - 43.0 °F 80% 29.81 in 10.0 mi SE 10.4 mph - N/A   Overcast
5:51 PM 48.2 °F - 44.6 °F 87% 29.82 in 10.0 mi SSE 5.8 mph - N/A   Overcast
5:53 PM 48.0 °F - 45.0 °F 89% 29.83 in 10.0 mi SSE 5.8 mph - 0.03 in   Overcast
6:53 PM 48.0 °F - 45.0 °F 89% 29.83 in 10.0 mi SSE 6.9 mph - 0.01 in Rain Light Rain
7:53 PM 48.0 °F - 45.0 °F 89% 29.84 in 10.0 mi SE 8.1 mph - 0.03 in   Overcast
8:53 PM 48.0 °F - 45.0 °F 89% 29.84 in 4.0 mi SE 5.8 mph - 0.00 in Rain Light Rain
9:43 PM 48.0 °F - 45.0 °F 89% 29.83 in 7.0 mi SE 8.1 mph - 0.01 in Rain Light Rain
9:51 PM 48.2 °F - 44.6 °F 87% 29.83 in 6.0 mi SE 10.4 mph - 0.01 in Rain Light Rain
9:53 PM 48.0 °F - 44.1 °F 86% 29.83 in 7.0 mi SE 9.2 mph - 0.01 in Rain Light Rain
10:02 PM 48.0 °F - 45.0 °F 89% 29.83 in 10.0 mi SE 9.2 mph - 0.00 in Rain Light Rain
10:53 PM 46.9 °F - 45.0 °F 93% 29.83 in 6.0 mi SE 8.1 mph - 0.01 in Rain Light Rain
11:53 PM 48.0 °F - 45.0 °F 89% 29.83 in 5.0 mi SE 9.2 mph - 0.01 in Rain Light Rain